EHI
8 8 7 6 6 5 5 5 4 4 6 6 4 3 3 4 4 5 8 13 14 12 12 12 10 8 5 2 0 0 0 0 0 0 0 0 0 1 1 1 0 0 0
11 10 8 7 6 5 5 6 5 5 6 6 5 3 3 4 5 6 7 11 13 13 12 12 10 9 7 4 1 0 0 1 1 1 0 0 0 0 0 0 0 0 0
12 12 10 8 7 6 6 6 6 5 6 6 5 4 4 4 5 5 6 9 11 12 13 12 10 9 9 6 4 2 2 3 3 2 1 1 0 0 0 0 0 0 0
12 14 12 10 8 7 6 6 6 6 5 4 4 4 3 4 4 4 5 7 9 10 12 12 11 9 8 7 6 5 5 5 5 4 3 2 1 1 1 0 0 0 0
13 14 14 11 8 7 7 7 6 7 6 4 3 2 3 4 4 4 4 5 7 9 10 12 12 9 7 6 7 8 8 7 7 6 5 4 3 2 2 1 0 0 0
14 14 14 13 10 9 10 10 9 9 9 6 4 3 4 5 6 6 5 5 6 7 9 11 11 9 6 6 9 10 10 9 8 7 7 5 4 3 3 2 1 0 0
16 15 15 14 12 12 13 12 12 12 11 10 8 5 5 7 7 8 8 8 7 6 8 11 11 10 7 6 9 11 10 9 9 8 8 7 5 4 3 3 1 1 0
18 16 16 16 14 12 13 13 13 12 11 12 11 8 7 7 7 8 9 9 8 8 8 9 11 12 10 8 9 10 9 8 8 8 8 7 5 3 3 3 3 2 1
18 18 19 19 16 13 12 13 13 12 11 11 10 9 8 7 8 8 8 8 8 9 8 7 9 12 13 12 11 9 7 7 7 8 8 8 6 4 3 3 3 3 3
18 18 19 21 18 13 11 11 11 12 11 10 9 9 8 7 7 8 7 8 9 8 7 5 7 11 13 14 13 9 7 5 5 6 7 8 7 5 4 4 3 3 3
19 18 19 20 18 13 10 9 9 11 12 10 9 8 8 7 7 7 7 8 9 9 8 7 8 9 12 13 12 8 5 4 3 4 5 7 8 7 5 5 4 3 3
20 19 19 20 19 14 11 10 9 11 12 11 8 7 8 8 7 7 7 7 8 9 9 9 9 8 9 10 9 5 3 2 2 2 2 4 5 6 6 6 6 4 4
22 22 21 21 19 16 13 11 10 11 12 11 9 8 9 9 8 8 6 5 6 7 8 8 8 7 7 7 5 2 1 1 1 1 1 2 2 3 3 4 5 5 4
24 23 23 22 19 16 13 12 11 11 12 13 11 11 10 9 9 7 5 4 4 4 4 5 6 7 6 6 4 3 2 1 0 0 0 0 0 1 1 1 3 3 3
23 24 24 22 20 16 13 12 11 10 12 14 14 13 13 11 8 5 4 4 3 1 2 4 7 7 7 7 5 6 6 3 0 0 0 0 0 0 0 0 1 1 1
23 24 23 22 21 18 17 15 12 10 12 15 15 14 14 13 10 6 4 4 4 2 2 4 6 6 7 7 7 9 9 4 0 0 0 0 0 0 0 0 0 0 0
23 22 21 22 21 20 20 19 15 12 14 15 14 13 13 13 12 9 7 7 6 4 3 4 4 5 6 7 7 9 9 5 2 0 0 0 0 0 0 0 0 0 0
22 20 20 20 21 20 21 20 17 14 14 14 12 10 10 10 11 10 10 9 6 5 4 3 4 5 6 8 8 8 7 5 3 1 0 0 0 0 0 0 0 0 0
21 20 18 18 18 18 17 17 16 14 13 13 11 9 9 9 10 10 10 8 6 5 4 3 4 5 6 7 7 6 5 5 4 2 0 0 0 0 0 0 0 0 0
21 20 18 16 15 14 13 13 13 13 13 13 11 9 8 9 10 10 9 7 6 6 6 5 4 5 6 5 4 4 5 5 5 3 2 1 0 0 0 0 0 0 0
18 18 17 14 13 11 9 9 10 11 11 10 8 6 5 5 6 6 5 4 4 4 5 5 4 5 5 3 3 3 4 3 3 3 3 2 1 1 1 0 0 0 0
15 15 14 13 11 8 5 4 7 9 10 8 7 5 2 1 2 2 2 1 1 2 3 3 3 3 4 3 4 4 3 2 1 2 2 2 2 2 1 0 0 0 0
15 14 13 13 11 7 2 1 3 7 8 8 8 6 3 1 2 2 1 1 1 1 1 1 1 1 2 4 4 3 2 1 1 1 1 1 1 1 1 0 0 0 0
16 15 13 13 11 7 3 1 1 4 6 7 8 7 4 3 3 3 3 2 2 2 1 0 0 0 1 1 1 1 1 1 0 0 0 0 0 0 0 0 0 0 0
14 13 12 12 10 7 3 1 1 3 5 6 6 5 4 3 3 3 3 3 4 3 2 1 0 0 0 0 0 0 0 0 0 0 0 0 0 0 0 0 0 0 0
11 11 11 11 9 6 3 1 1 4 6 5 4 4 3 3 3 2 3 4 4 4 3 2 1 0 0 0 0 0 0 0 0 0 0 0 0 0 0 0 0 0 0
Wind_Speed
2 2 1 1 2 2 2 1 0 1 1 1 1 1 1 1 3 3 5 11 11 9 8 8 7 7 7 6 6 6 7 7 7 7 7 6 6 6 6 6 6 7 7
2 2 1 1 1 1 1 1 1 0 0 0 0 0 0 0 2 3 4 7 11 10 9 8 7 7 7 6 6 6 6 6 7 7 7 6 6 7 7 7 7 7 7
2 1 1 1 0 1 1 1 0 1 1 1 1 1 1 1 1 2 3 4 6 9 9 8 8 7 7 7 7 7 7 7 7 7 7 8 8 8 8 8 7 7 7
2 1 1 1 0 0 0 1 0 0 1 0 0 1 1 1 1 2 2 3 4 4 7 10 8 8 8 7 7 7 7 7 7 7 8 8 8 8 9 8 7 7 6
2 1 1 1 1 0 1 0 1 1 1 1 1 1 2 2 2 2 2 3 3 3 4 8 10 9 9 9 8 8 8 7 7 7 7 8 8 9 9 8 8 7 7
2 2 1 1 1 0 0 1 0 0 1 1 2 1 1 2 2 2 2 2 3 4 4 5 6 7 10 9 8 8 8 8 7 7 7 8 8 8 9 9 9 8 7
2 1 1 1 1 1 1 0 1 1 2 1 1 1 1 2 3 3 2 2 3 3 3 4 4 4 5 9 8 8 8 8 8 7 7 8 8 8 9 9 9 9 8
2 2 1 1 1 1 1 1 1 1 2 1 1 1 1 1 1 3 3 3 3 3 3 4 4 4 4 4 6 9 8 8 8 8 7 7 8 9 10 10 10 9 9
2 1 2 1 1 1 1 1 1 2 2 1 0 0 1 1 1 1 2 2 2 2 2 2 3 3 4 3 4 7 8 8 8 8 8 7 7 9 10 10 10 10 10
3 2 2 1 1 1 1 2 1 2 2 2 1 1 1 1 0 0 0 1 1 2 2 2 2 3 3 3 4 7 8 8 8 8 8 7 8 8 9 10 10 10 10
3 2 2 1 1 1 2 2 1 2 2 2 2 1 2 2 2 1 1 1 1 1 2 2 1 2 2 3 3 6 9 9 8 8 8 8 8 8 8 10 10 11 10
2 2 2 2 1 1 1 2 2 2 2 2 2 2 2 1 1 2 2 2 2 1 2 1 2 2 3 3 5 7 9 10 9 8 7 7 8 8 9 9 10 11 11
2 2 2 2 2 2 1 1 2 2 2 2 2 2 2 2 2 1 1 2 2 1 2 2 2 2 2 2 3 7 9 10 9 8 7 7 8 8 9 9 9 10 10
2 3 3 2 2 2 2 1 2 2 2 2 3 3 2 2 1 2 2 2 2 2 2 2 1 1 1 2 3 7 5 9 9 9 8 8 8 8 8 8 8 8 8
3 3 3 3 2 2 1 1 2 2 2 2 2 2 2 2 2 2 2 2 2 2 2 2 1 1 1 2 4 4 4 7 8 8 8 8 8 8 8 7 7 7 6
2 3 3 3 2 2 2 2 2 2 1 1 1 2 2 2 2 2 2 2 2 2 2 1 1 1 1 1 3 2 3 7 8 9 9 9 8 8 8 7 7 6 6
2 3 2 2 2 2 2 2 2 1 1 1 1 1 2 2 2 1 1 1 1 1 2 2 1 1 1 1 1 1 2 4 4 8 9 9 9 8 8 8 7 6 6
2 2 2 2 3 3 2 2 2 2 1 1 1 1 2 2 2 1 1 1 1 1 1 2 1 1 1 1 1 2 2 3 3 7 9 9 9 9 9 9 8 8 7
2 2 2 2 2 2 1 1 2 2 1 1 1 1 1 1 1 1 2 1 1 2 1 1 2 1 1 1 1 1 1 1 2 4 6 8 9 9 9 9 9 8 8
2 2 2 2 2 1 1 1 1 2 2 1 1 1 1 1 2 2 2 1 1 2 1 1 1 1 1 1 0 1 1 1 1 1 2 4 7 9 9 9 9 8 8
3 2 2 2 2 2 1 0 1 2 1 1 1 1 1 0 1 1 2 1 1 1 1 1 1 1 1 1 1 1 1 1 1 1 1 2 2 3 5 7 8 8 8
2 2 2 2 2 1 2 2 1 1 1 2 2 1 1 1 1 1 1 1 1 2 1 1 1 1 1 1 1 1 1 1 2 1 0 2 1 2 2 4 7 9 10
2 2 2 2 2 1 2 1 1 1 2 2 2 2 3 2 1 1 1 2 2 2 3 2 2 2 1 1 1 2 2 2 3 2 1 2 1 1 1 3 7 9 9
2 2 2 2 2 2 3 1 1 2 2 2 2 2 2 1 1 1 1 2 2 2 3 3 3 2 2 1 2 3 3 3 3 2 1 2 2 1 2 1 6 8 9
2 2 2 2 2 3 3 2 0 2 1 1 1 1 1 0 1 1 1 2 2 2 3 3 3 3 4 5 3 2 2 2 3 2 1 1 2 1 2 2 3 7 8
2 2 2 2 3 3 4 3 1 1 1 1 1 0 2 2 1 1 1 2 2 3 2 3 3 4 5 5 6 4 3 3 3 2 1 1 2 1 1 1 1 2 3
Wind_Direction
145 129 146 166 180 172 172 179 169 180 211 234 220 204 179 152 142 136 140 152 151 154 157 156 157 160 165 164 165 165 171 176 181 191 197 193 187 183 184 190 185 182 182
122 135 163 190 177 154 132 149 160 199 69 26 31 221 275 191 139 143 148 156 162 162 163 166 166 167 171 175 175 175 176 179 182 186 192 192 185 186 187 190 192 188 185
143 143 155 203 170 148 154 134 174 177 186 178 176 195 207 232 142 145 155 156 164 170 171 175 173 171 175 184 188 188 186 185 187 188 188 187 189 192 193 191 190 190 190
159 159 157 154 226 146 143 152 352 359 30 21 239 225 187 176 191 182 179 161 159 166 180 185 181 179 182 187 190 190 192 196 194 190 191 191 190 191 190 188 185 186 189
162 180 157 133 242 102 74 353 72 33 356 328 255 214 199 184 188 201 189 174 164 165 171 181 187 192 193 191 191 192 194 198 194 190 193 194 192 191 192 189 187 190 193
177 183 161 165 226 131 84 52 30 279 293 280 280 269 211 198 187 183 198 191 181 180 177 170 181 198 201 196 193 194 195 197 196 193 195 197 195 196 195 192 192 193 196
175 168 176 181 193 188 165 194 267 251 247 260 270 273 248 210 191 181 184 186 188 184 179 175 177 181 189 193 194 192 194 198 198 199 201 202 199 199 198 196 197 198 200
182 188 188 200 194 205 195 227 252 283 270 236 255 292 262 232 227 207 188 193 192 187 187 186 179 180 177 173 182 191 198 202 203 205 206 207 208 205 200 198 200 201 202
172 187 189 225 210 194 194 218 243 254 280 279 202 233 286 266 263 203 195 188 180 181 189 198 185 170 177 169 174 188 195 203 209 211 211 213 214 208 206 205 205 204 204
171 182 180 201 217 202 202 230 232 258 260 271 269 221 236 258 251 282 277 203 194 182 191 213 190 174 179 166 165 174 186 195 207 215 216 217 217 213 212 211 211 210 211
176 178 175 184 197 196 211 226 245 263 258 262 269 258 255 255 241 220 240 227 212 205 200 204 191 201 186 173 173 181 184 190 201 211 218 218 216 216 215 215 216 214 214
177 180 183 182 193 204 211 220 220 233 259 277 286 278 266 257 248 237 236 225 213 226 213 207 209 211 203 183 193 184 184 191 197 205 212 216 217 219 221 222 221 218 216
171 183 200 195 202 209 205 217 218 229 246 253 267 278 275 265 256 250 252 254 230 227 225 228 217 207 211 174 183 187 191 193 197 201 206 214 218 221 224 226 226 223 220
178 175 189 195 212 215 210 208 240 222 230 250 257 263 268 264 263 251 248 257 264 252 231 229 220 209 209 176 190 194 192 194 197 199 204 211 217 221 222 223 225 224 223
178 162 177 185 197 207 215 203 231 237 222 233 254 262 262 267 258 256 241 240 251 263 260 245 234 214 218 185 191 203 187 196 195 197 203 207 211 212 214 216 217 217 218
168 162 178 184 195 199 199 219 245 225 218 233 250 276 274 271 269 259 244 245 246 244 266 271 261 250 244 248 199 216 188 186 196 200 204 206 205 203 204 205 204 206 207
160 168 181 189 202 203 196 210 248 237 226 238 258 286 296 293 294 291 276 258 249 231 250 275 259 254 256 268 221 235 195 189 193 200 203 205 203 201 199 199 199 200 201
181 181 191 204 215 213 210 212 241 252 239 250 259 288 302 307 306 293 289 277 273 257 241 258 270 260 242 230 213 236 234 206 194 197 203 206 203 202 203 202 201 201 203
183 201 204 216 219 231 216 216 236 254 247 251 257 272 296 317 304 293 278 277 287 290 250 237 250 247 227 249 231 249 262 251 226 188 202 210 209 206 206 206 206 206 205
189 206 210 216 216 228 232 223 237 244 247 254 265 258 269 284 278 274 271 278 287 291 281 265 253 247 237 259 222 248 280 284 267 199 217 209 205 204 205 206 208 209 207
192 199 206 224 226 214 236 286 256 237 252 261 275 264 248 354 298 265 265 263 268 265 267 268 262 271 333 358 301 301 298 293 299 262 252 247 191 191 197 201 207 210 207
190 197 211 216 231 228 92 60 5 270 257 253 254 260 227 238 244 244 254 244 253 247 257 273 287 278 296 304 303 295 288 298 291 261 253 280 234 202 190 186 196 200 204
194 204 218 205 177 135 119 88 358 267 236 241 245 254 265 254 224 218 227 220 226 237 225 228 254 270 271 283 305 290 275 272 266 258 254 271 264 250 228 186 191 198 201
192 206 211 204 179 156 143 122 330 278 247 225 237 254 264 260 249 9 269 254 241 239 233 222 229 249 257 271 258 259 260 279 278 267 230 250 264 269 266 191 191 195 200
196 207 201 203 168 153 162 161 272 267 241 230 240 260 259 230 88 44 286 271 273 258 239 235 232 233 231 241 244 261 269 271 285 283 252 247 260 269 262 237 199 202 205
191 199 187 188 171 160 165 168 178 263 245 245 213 136 57 58 73 77 269 263 273 280 270 251 241 237 232 230 226 219 237 257 277 279 253 246 267 278 287 269 208 202 211